Orbital Elements at Epoch 2459200.5 (2020-Dec-17.0) TDB
Reference: JPL 16 (heliocentric ecliptic J2000)
Element | Value | Uncertainty (1-sigma) | Units |
e | .05662175670235961 | 6.1082e-08 | |
a | 3.031380728037381 | 2.8898e-08 | au |
q | 2.859738625982227 | 2.0385e-07 | au |
i | .3029896064299059 | 6.6019e-06 | deg |
node | 222.7989608621094 | 0.0012806 | deg |
peri | 205.6039148922767 | 0.0012842 | deg |
M | 299.2405268318671 | 9.7973e-05 | deg |
tp | 2459525.864865242934 (2021-Nov-07.36486524) | 0.000527 | TDB |
period | 1927.787477079196 5.28 | 2.7567e-05 7.547e-08 | d yr |
n | .1867425762851403 | 2.6703e-09 | deg/d |
Q | 3.203022830092536 | 3.0535e-08 | au |
|
| | Orbit Determination Parameters
Additional Information
|